Bryce Canyon, UT

8:39 AM MST on December 17, 2017 (GMT -0700)
Bryce Canyon

Weather History for KBCE - March, 2013

Change the Weather History Date:

Friday, March 22, 2013

  Actual Average Record
Temperature  
Mean Temperature 32 °F -  
Max Temperature 45 °F 47 °F 66 °F (2004)
Min Temperature 19 °F 18 °F 5 °F (1982)
Degree Days  
Heating Degree Days 34    
Moisture  
Dew Point 8 °F    
Average Humidity 46    
Maximum Humidity 85    
Minimum Humidity 8    
Precipitation  
Precipitation 0.00 in - - ()
Sea Level Pressure  
Sea Level Pressure 29.71 in    
Wind  
Wind Speed 8 mph (WNW)    
Max Wind Speed 23 mph    
Max Gust Speed 40 mph    
Visibility 10 miles    
Events      
Averages and records for this station are not official NWS values.
T = Trace of Precipitation, MM = Missing Value Source: NWS Daily Summary

Daily Weather History Graph

Daily Weather History Graph

Search for Another Location

Airport or City:

Trip Planner

Search our weather history database for the weather conditions in past years. The results will help you decide how hot, cold, wet, or windy it might be!

Date:

Astronomy

Mar. 22, 2013 Rise Set
Actual Time 7:28 AM MDT 7:42 PM MDT
Civil Twilight 7:02 AM MDT 8:08 PM MDT
Nautical Twilight 6:31 AM MDT 8:39 PM MDT
Astronomical Twilight 6:00 AM MDT 9:10 PM MDT
Moon 3:17 PM MDT (3/22) 4:26 AM MDT (3/22)
Length of Visible Light 13h 06m
Length of Day
12h 14m
Waxing Gibbous, 78% of the Moon is Illuminated
Mar 22
Waxing Gibbous
Mar 27
Full
Apr 2
Last Quarter
Apr 10
New
Apr 18
First Quarter

Hourly Weather History & Observations

Time (MDT) Temp. Windchill Dew Point Humidity Pressure Visibility Wind Dir Wind Speed Gust Speed Precip Events Conditions
1:53 AM 27.0 °F 23.0 °F 16.0 °F 63% 29.76 in 10.0 mi North 3.5 mph - N/A   Clear
2:53 AM 25.0 °F - 19.0 °F 78% 29.75 in 10.0 mi Calm Calm - N/A   Mostly Cloudy
3:53 AM 25.0 °F - 17.1 °F 72% 29.73 in 10.0 mi Calm Calm - N/A   Mostly Cloudy
4:53 AM 23.0 °F 15.8 °F 19.0 °F 85% 29.73 in 10.0 mi West 5.8 mph - N/A   Clear
5:53 AM 21.9 °F 17.2 °F 16.0 °F 78% 29.75 in 10.0 mi West 3.5 mph - N/A   Clear
6:53 AM 19.9 °F 14.9 °F 14.0 °F 78% 29.78 in 10.0 mi North 3.5 mph - N/A   Clear
7:53 AM 19.9 °F 13.4 °F 12.9 °F 74% 29.78 in 10.0 mi North 4.6 mph - N/A   Clear
8:53 AM 28.0 °F - 12.9 °F 53% 29.77 in 10.0 mi Calm Calm - N/A   Clear
9:53 AM 35.1 °F 27.9 °F 12.0 °F 39% 29.72 in 10.0 mi WNW 9.2 mph - N/A   Clear
10:53 AM 37.9 °F 28.9 °F -0.9 °F 19% 29.70 in 10.0 mi West 16.1 mph - N/A   Clear
11:53 AM 41.0 °F 32.8 °F 1.0 °F 19% 29.68 in 10.0 mi WNW 16.1 mph 25.3 mph N/A   Clear
12:53 PM 44.1 °F 36.8 °F -15.0 °F 8% 29.65 in 10.0 mi West 16.1 mph 26.5 mph N/A   Clear
1:53 PM 44.1 °F 35.9 °F -8.0 °F 11% 29.64 in 10.0 mi WNW 19.6 mph 31.1 mph N/A   Clear
2:53 PM 44.1 °F 35.7 °F -5.1 °F 13% 29.64 in 10.0 mi WNW 20.7 mph 32.2 mph N/A   Clear
3:53 PM 44.1 °F 35.9 °F -2.0 °F 15% 29.63 in 10.0 mi WNW 19.6 mph 32.2 mph N/A   Clear
4:53 PM 44.1 °F 35.2 °F -0.9 °F 15% 29.62 in 10.0 mi WNW 23.0 mph 40.3 mph N/A   Clear
5:53 PM 44.1 °F 36.2 °F -0.0 °F 16% 29.62 in 10.0 mi West 18.4 mph 27.6 mph N/A   Clear
6:53 PM 39.9 °F 30.8 °F 5.0 °F 23% 29.66 in 10.0 mi WNW 18.4 mph 27.6 mph N/A   Clear
7:53 PM 33.1 °F 23.9 °F 12.9 °F 43% 29.73 in 10.0 mi NW 12.7 mph 24.2 mph N/A   Clear
8:53 PM 28.0 °F 16.5 °F 14.0 °F 56% 29.74 in 10.0 mi NW 15.0 mph - N/A   Clear
9:53 PM 25.0 °F 14.8 °F 12.9 °F 60% 29.77 in 10.0 mi WNW 10.4 mph - N/A   Clear
10:53 PM 21.9 °F 9.8 °F 12.9 °F 68% 29.80 in 10.0 mi WNW 12.7 mph - N/A   Clear
11:53 PM 19.9 °F 8.6 °F 12.0 °F 71% 29.79 in 10.0 mi North 10.4 mph - N/A   Clear